Regional Weather Roundup
Issued by NWS Bismarck, ND

Home | Current Version | Previous Version | Text Only | Print | Product List | Glossary On
Versions: 1 2 3 4 5 6 7 8 9 10 11 12 13 14 15 16 17 18 19 20 21 22 23 24 25 26 27 28 29 30 31 32 33 34 35 36 37 38 39 40 41 42 43 44 45 46 47 48 49 50
000
ASUS43 KBIS 140610
RWRBIS

NWR BROADCAST TEXT
NATIONAL WEATHER SERVICE BISMARCK ND
100 AM CDT MON JUL 14 2014

NOTE: "FAIR" INDICATES FEW OR NO CLOUDS BELOW 12,000 FEET WITH NO
SIGNIFICANT WEATHER AND/OR OBSTRUCTIONS TO VISIBILITY.


CITY           SKY/WX    TMP DP  RH WIND       PRES   REMARKS
WILLISTON      CLEAR     56  46  69 N8        30.20R
MINOT          PTCLDY    56  44  64 N12       30.12R
MINOT AFB      CLEAR     56  47  71 NW15      30.13R
BISMARCK       MOCLDY    59  47  64 NW7       30.11R
DICKINSON      CLEAR     52  44  74 N7        30.18R
GARRISON         N/A     50  48  93 NW7       30.13R
HETTINGER ARPT CLEAR     52  43  71 N7        30.19R
JAMESTOWN      CLOUDY    60  44  55 N16       30.03R
CARRINGTON     FAIR      55  46  71 N12G20    30.06R
CROSBY         CLOUDY    52  50  93 NW8       30.21R
HARVEY         FAIR      54  46  76 NW14      30.08R
HAZEN          FAIR      52  46  82 N6        30.15R
LINTON         FAIR      50  46  87 W3        30.10R
MANDAN         MOCLDY    54  46  76 NW7       30.13R
RUGBY          FAIR      52  46  82 NW10      30.07S
STANLEY          N/A     54  50  87 N9        30.17R
TIOGA          FAIR      50  50 100 N9        30.22R
WATFORD CITY   FAIR      48  45  87 CALM      30.18R
$$

CITY           SKY/WX    TMP DP  RH WIND       PRES   REMARKS
GRAND FORKS    LGT RAIN  53  52  96 NW9       29.96S
GRAND FORKS AF MOCLDY    54  54  99 NW13      29.98S
DEVILS LAKE    MOCLDY    57  45  62 N22G30    30.02R
FARGO          MOCLDY    61  46  57 NW17      29.96R
CANDO          MOCLDY    54  48  82 NW15      30.05S
CAVALIER       MOCLDY    52  48  87 N15G22    29.98R
GRAFTON        LGT RAIN  52  52 100 NW16G25   29.97R
GWINNER        CLOUDY    63  46  55 N9        30.02R
LANGDON        CLOUDY    50  48  93 N14G20    30.01R
ROLLA          MOCLDY    54  48  82 N22G31    30.07R
WALHALLA         N/A     50  50 100 N14G23      N/A
$$

CITY           SKY/WX    TMP DP  RH WIND       PRES   REMARKS
ABERDEEN       CLEAR     54  46  74 NW9       30.03S
MOBRIDGE       CLEAR     51  48  89 N6        30.08R
BUFFALO          N/A     61  42  49 NE12      30.15R
RAPID CITY     CLEAR     57  52  83 NW8       30.19S
GLASGOW        CLEAR     55  42  61 NE13      30.25R
SIDNEY         CLEAR     55  43  62 N10       30.24R
WOLF POINT     CLEAR     55  42  61 NE5       30.25R
GLENDIVE       CLEAR     55  36  47 N7        30.24R
MILES CITY     CLEAR     65  40  39 NE14      30.23R
BAKER          CLEAR     54  38  54 N10       30.23R
$$

CITY           SKY/WX    TMP DP  RH WIND       PRES   REMARKS
BILLINGS       PTCLDY    71  47  42 NE8       30.27R
GREAT FALLS    PTCLDY    68  47  46 E12       30.26R
ESTEVAN        CLOUDY    55  46  71 N10       30.20R
$$




USA.gov is the U.S. government's official web portal to all federal, state and local government web resources and services.